[[{"header":{"parameterUnit":"m.s-1","parameterCategory":1,"la1":30.2991,"la2":30.254,"lo1":-89.0895,"lo2":-89.0444,"dy":0.0017,"dx":0.0017,"nx":28,"ny":28,"refTime":"2024-05-08T09:00:00:Z","depth":0,"parameterNumber":2,"parameterNumberName":"U-component_of_WINDS"},"data":[0,0,0,0,0,0,0,0,0,0,0,0,0,0,0,0,0,0,0,0,0,0,0,0,0,0,0,0,0,0,0,0,0,0,0,0,0,0,0,0,0,0,0,0,0,0,0,0,0,0,0,0,0,0,0,0,0,0,1.8131,1.8132,0,1.8167,1.8167,1.8167,1.8137,1.8136,1.8134,1.8133,1.8169,1.8171,1.8173,0,0,0,0,0,0,0,0,0,0,0,0,0,1.8035,1.8037,1.8131,1.8132,1.8132,1.8167,1.8167,1.8167,1.8137,1.8136,1.8134,1.8133,1.8168,1.8171,1.8173,0,0,0,0,0,0,0,0,0,0,0,0,0,1.8074,1.8038,1.8131,1.8121,1.8121,1.8166,1.8167,1.8168,1.8138,1.8136,1.8134,1.8132,1.8167,1.817,1.8173,1.8231,0,0,1.8183,1.8184,0,0,0,0,0,0,0,0,1.8072,1.8078,1.8122,1.8122,1.8121,1.8145,1.8146,1.8189,1.8138,1.8131,1.8133,1.8131,1.8162,1.8166,1.8177,1.8232,1.8234,1.8183,1.8185,1.8187,1.8188,0,0,0,0,0,0,0,1.8069,1.8076,1.8145,1.8123,1.8122,1.8114,1.8118,1.8154,1.8157,1.8132,1.8129,1.8134,1.8162,1.8174,1.8177,1.8234,1.8183,1.8186,1.8188,1.8189,1.8337,1.8338,0,0,0,0,0,0,1.8068,1.8074,1.8144,1.8146,1.8092,1.8117,1.8121,1.814,1.8156,1.8157,1.8136,1.8133,1.8169,1.8174,1.8178,1.8245,1.8187,1.819,1.8191,1.8335,1.8337,1.8339,0,0,0,0,0,0,1.8066,1.8075,1.8143,1.811,1.8118,1.8121,1.8142,1.8141,1.8153,1.816,1.816,1.8147,1.8168,1.8174,1.8217,1.8246,1.8191,1.8194,1.8332,1.8335,1.8338,1.8379,0,0,0,0,0,0,1.8063,1.8074,1.8096,1.811,1.812,1.8182,1.8144,1.8143,1.8159,1.8155,1.817,1.8171,1.8167,1.8213,1.8221,1.8249,1.8196,1.833,1.8334,1.8337,1.8375,1.8383,1.839,0,0,0,0,0,1.806,1.8107,1.8098,1.8106,1.8148,1.8184,1.8189,1.8183,1.8161,1.8183,1.8187,1.8171,1.8242,1.8218,1.8226,1.8256,1.8328,1.8332,1.8337,1.8372,1.8382,1.839,0,0,0,0,0,0,1.8096,1.8109,1.8099,1.8151,1.8167,1.8178,1.8206,1.8194,1.8215,1.8211,1.8202,1.8206,1.8252,1.8258,1.8231,1.8311,1.8281,1.8288,1.8305,1.8314,1.8322,1.8318,1.8199,0,0,0,0,0,1.811,1.8139,1.8148,1.8194,1.8202,1.8203,1.8218,1.8212,1.8228,1.8234,1.8241,1.8256,1.8281,1.8298,1.8322,1.8377,1.8378,1.8401,1.8408,1.8415,1.842,1.8447,1.8456,1.8354,1.8354,1.8354,0,0,1.814,1.815,1.8169,1.8201,1.8212,1.8241,1.8208,1.8241,1.8262,1.8239,1.828,1.8286,1.8302,1.835,1.8372,1.8357,1.8449,1.842,1.8425,1.8427,1.8453,1.8462,1.8471,1.8357,1.8357,1.8356,0,0,1.8208,1.8219,1.8258,1.8269,1.8286,1.8286,1.8296,1.8309,1.8312,1.8353,1.8336,1.836,1.8405,1.8417,1.8428,1.8499,1.8485,1.8508,1.8546,1.8572,1.858,1.8587,1.8611,1.862,1.8513,1.8513,1.8513,0,1.8242,1.8285,1.8279,1.8312,1.8326,1.8306,1.8344,1.8356,1.838,1.839,1.8373,1.8427,1.8437,1.8487,1.8504,1.8515,1.8524,1.8505,1.858,1.8587,1.8593,1.8615,1.8625,1.8516,1.8515,1.8515,1.8515,0,1.8326,1.8356,1.8385,1.8408,1.8425,1.8461,1.8459,1.8477,1.8469,1.8471,1.8512,1.8523,1.8548,1.856,1.8553,1.8608,1.8598,1.8581,1.855,1.8606,1.8626,1.8635,1.8519,1.8518,1.8518,1.8517,0,0,1.8417,1.8436,1.8446,1.8456,1.8473,1.8496,1.853,1.8554,1.8569,1.8586,1.8613,1.8651,1.8634,1.8648,1.8642,1.8666,1.8719,1.8645,1.8645,1.8657,1.8778,1.879,1.88,1.8709,1.8711,1.8712,1.8776,0,1.8484,1.8544,1.8538,1.8594,1.8621,1.8602,1.8631,1.8644,1.8647,1.8669,1.8671,1.8697,1.8674,1.8682,1.8705,1.8708,1.8743,1.8703,1.8733,1.8735,1.8728,1.8812,1.8825,1.8884,1.8785,1.8786,1.8787,0,1.8571,1.859,1.8649,1.866,1.8671,1.8698,1.8718,1.8741,1.8755,1.8754,1.8769,1.8759,1.8792,1.8761,1.8805,1.8779,1.8791,1.8794,1.8796,1.8797,1.8763,1.8814,1.8904,1.8912,1.88,1.8799,1.8798,0,1.8629,1.8671,1.871,1.8719,1.8734,1.8753,1.876,1.8772,1.8786,1.8804,1.8813,1.8836,1.8847,1.8864,1.886,1.8838,1.8904,1.8874,1.8904,1.8904,1.8918,1.8917,1.9009,1.8928,1.8928,1.8928,1.8928,0,1.8704,1.874,1.8736,1.8761,1.88,1.8793,1.8832,1.8836,1.8847,1.8871,1.8857,1.888,1.8873,1.8895,1.8892,1.8928,1.8934,1.8934,1.8933,1.8935,1.8934,1.8941,1.8936,1.893,1.893,1.8929,1.8929,0,1.8776,1.8775,1.8817,1.8827,1.883,1.8859,1.8867,1.8889,1.889,1.8921,1.8927,1.8929,1.8954,1.8951,1.898,1.8978,1.9022,1.9016,1.9017,1.9015,1.9045,1.9041,1.9144,1.9156,1.9069,1.907,1.907,0,1.8823,1.885,1.8863,1.8878,1.8886,1.8911,1.8925,1.8919,1.8934,1.8952,1.8972,1.8996,1.9014,1.9055,1.9058,1.9079,1.9073,1.9108,1.9076,1.9077,1.9071,1.9069,1.9071,1.9113,1.9114,1.9115,1.9116,0,1.8905,1.8903,1.8925,1.8946,1.8963,1.898,1.8995,1.9008,1.9003,1.9021,1.9047,1.9061,1.909,1.9113,1.9133,1.9139,1.9126,1.9126,1.9133,1.9135,1.9133,1.9133,1.9032,1.9123,1.9122,1.9122,1.9121,1.9121,1.8965,1.8987,1.8999,1.9023,1.9034,1.9048,1.9069,1.9072,1.9093,1.9116,1.9111,1.9139,1.9151,1.9177,1.9185,1.9206,1.9194,1.9205,1.9208,1.9211,1.9213,1.9131,1.921,1.921,1.921,1.921,1.921,0,1.9045,1.9052,1.9074,1.9095,1.9113,1.91,1.9115,1.9131,1.9157,1.9169,1.9187,1.9216,1.9238,1.9243,1.9264,1.928,1.9274,1.9286,1.9284,1.9285,1.9224,1.9215,1.929,1.929,1.929,1.929,1.929,1.929,1.9089,1.9125,1.9125,1.9166,1.9172,1.92,1.921,1.9222,1.9231,1.9264,1.9282,1.9285,1.9294,1.9315,1.9335,1.9336,1.9343,1.9356,1.9354,1.9297,1.9289,1.9282,1.9272,1.9358,1.9359,1.9413,1.9414,1.9414]},{"header":{"parameterUnit":"m.s-1","parameterCategory":1,"la1":30.2991,"la2":30.254,"lo1":-89.0895,"lo2":-89.0444,"dy":0.0017,"dx":0.0017,"nx":28,"ny":28,"refTime":"2024-05-08T09:00:00:Z","depth":0,"parameterNumber":3,"parameterNumberName":"V-component_of_WINDS"},"data":[0,0,0,0,0,0,0,0,0,0,0,0,0,0,0,0,0,0,0,0,0,0,0,0,0,0,0,0,0,0,0,0,0,0,0,0,0,0,0,0,0,0,0,0,0,0,0,0,0,0,0,0,0,0,0,0,0,0,6.5726,6.5728,0,6.5905,6.5907,6.5909,6.5901,6.5899,6.5896,6.5894,6.6072,6.6079,6.6086,0,0,0,0,0,0,0,0,0,0,0,0,0,6.5371,6.5378,6.5725,6.5728,6.573,6.5904,6.5907,6.5909,6.5902,6.5899,6.5896,6.5893,6.607,6.6078,6.6087,0,0,0,0,0,0,0,0,0,0,0,0,0,6.5535,6.538,6.5725,6.5747,6.5751,6.5904,6.5907,6.591,6.5902,6.5899,6.5895,6.5891,6.6067,6.6077,6.6088,6.6229,0,0,6.612,6.6125,0,0,0,0,0,0,0,0,6.5526,6.5548,6.5742,6.5746,6.5751,6.5877,6.5847,6.6017,6.5903,6.5845,6.5894,6.589,6.601,6.6025,6.6067,6.6237,6.6245,6.6121,6.6128,6.6132,6.6135,0,0,0,0,0,0,0,6.5514,6.554,6.5796,6.5745,6.575,6.5747,6.5766,6.5879,6.5946,6.585,6.585,6.5871,6.6012,6.6057,6.6071,6.6247,6.6121,6.6131,6.6137,6.6141,6.6541,6.6545,0,0,0,0,0,0,6.5499,6.5531,6.5791,6.5802,6.5627,6.5756,6.5777,6.584,6.5945,6.5957,6.5874,6.587,6.604,6.6058,6.6077,6.6249,6.6132,6.6142,6.6148,6.6537,6.6542,6.6547,0,0,0,0,0,0,6.5492,6.5522,6.5783,6.5666,6.5699,6.5766,6.5837,6.5846,6.5891,6.5964,6.5975,6.5908,6.6038,6.6062,6.6191,6.6255,6.6147,6.6157,6.6532,6.6539,6.6545,6.6593,0,0,0,0,0,0,6.5481,6.552,6.5575,6.5668,6.5706,6.5896,6.5841,6.5852,6.591,6.5906,6.5998,6.601,6.6037,6.6176,6.6202,6.6267,6.6165,6.6527,6.6535,6.6543,6.6586,6.66,6.6612,0,0,0,0,0,6.5469,6.5581,6.5578,6.5609,6.5777,6.59,6.5921,6.5952,6.5915,6.597,6.6017,6.6007,6.6244,6.6189,6.6218,6.6288,6.6523,6.6533,6.6542,6.658,6.6597,6.6612,0,0,0,0,0,0,6.5492,6.5593,6.5591,6.5737,6.581,6.5899,6.597,6.5969,6.6053,6.6046,6.6078,6.6099,6.6228,6.6271,6.6208,6.6429,6.6378,6.6394,6.6397,6.6414,6.6427,6.6413,6.6174,0,0,0,0,0,6.5514,6.5608,6.569,6.581,6.5848,6.5902,6.5957,6.5974,6.605,6.6081,6.6137,6.621,6.6301,6.636,6.6447,6.6592,6.6611,6.6654,6.6667,6.6678,6.6691,6.677,6.679,6.6578,6.6578,6.6578,0,0,6.5561,6.5628,6.5684,6.5817,6.5876,6.597,6.5928,6.603,6.61,6.6096,6.6222,6.6265,6.6349,6.6486,6.6549,6.6526,6.6754,6.669,6.6698,6.6705,6.6782,6.6802,6.6819,6.6585,6.6584,6.6583,0,0,6.5694,6.5754,6.5861,6.5921,6.6011,6.6047,6.6072,6.6161,6.6191,6.6318,6.6317,6.6399,6.6555,6.6614,6.6665,6.682,6.6814,6.6847,6.6916,6.6992,6.7009,6.7024,6.7079,6.7098,6.686,6.686,6.6861,0,6.5739,6.5884,6.5915,6.6018,6.6076,6.6078,6.6185,6.6241,6.6355,6.6394,6.6366,6.6561,6.6618,6.6769,6.6807,6.6848,6.6877,6.6837,6.7004,6.702,6.7034,6.7087,6.7107,6.6864,6.6864,6.6863,6.6863,0,6.5935,6.6035,6.611,6.6221,6.6287,6.6391,6.6437,6.65,6.6511,6.6549,6.6678,6.6746,6.6847,6.6884,6.6895,6.7037,6.7019,6.6998,6.6947,6.7057,6.7107,6.7127,6.6869,6.6868,6.6867,6.6866,0,0,6.6087,6.6215,6.6242,6.6293,6.6392,6.6469,6.6572,6.6673,6.6726,6.6804,6.689,6.7022,6.7003,6.7061,6.7078,6.7146,6.7263,6.7116,6.7118,6.714,6.7423,6.7438,6.7461,6.726,6.7264,6.7267,6.7415,0,6.623,6.6417,6.6448,6.661,6.6702,6.6706,6.6796,6.6865,6.6904,6.6986,6.7027,6.712,6.7088,6.7122,6.7189,6.7235,6.732,6.7225,6.734,6.7343,6.7318,6.7487,6.7504,6.764,6.7435,6.7438,6.7441,0,6.6422,6.6507,6.6679,6.6766,6.6805,6.6886,6.698,6.7059,6.7138,6.716,6.7225,6.7235,6.7341,6.7286,6.7431,6.7366,6.7414,6.7444,6.745,6.7461,6.7398,6.7502,6.7684,6.7705,6.7472,6.7469,6.7467,0,6.6515,6.6672,6.6795,6.6838,6.6942,6.6999,6.7045,6.712,6.7178,6.726,6.7298,6.739,6.7441,6.7511,6.7545,6.7502,6.7688,6.7636,6.7709,6.7708,6.7748,6.7745,6.794,6.778,6.778,6.7779,6.7779,0,6.6671,6.6776,6.6838,6.6914,6.7031,6.7065,6.718,6.7224,6.7291,6.7374,6.7382,6.7459,6.7499,6.7582,6.7609,6.7725,6.7748,6.7768,6.7774,6.7768,6.7765,6.78,6.7791,6.7785,6.7784,6.7783,6.7782,0,6.6795,6.6841,6.6975,6.7064,6.7088,6.7171,6.7245,6.7318,6.7356,6.7461,6.7487,6.7546,6.7644,6.7685,6.7805,6.7823,6.7956,6.7955,6.793,6.7932,6.8002,6.7995,6.8226,6.8258,6.8077,6.8079,6.808,0,6.6891,6.6972,6.707,6.7127,6.7175,6.7266,6.7326,6.7363,6.7424,6.752,6.7581,6.7679,6.776,6.7916,6.7968,6.806,6.806,6.8135,6.8074,6.8065,6.8061,6.8056,6.8063,6.8146,6.8148,6.8149,6.815,0,6.7057,6.7076,6.7163,6.7258,6.733,6.7406,6.748,6.7526,6.7574,6.7642,6.7744,6.7806,6.7929,6.8027,6.8121,6.8166,6.8166,6.8169,6.8191,6.8185,6.8167,6.8177,6.796,6.8164,6.8162,6.8162,6.8161,6.816,6.717,6.7242,6.7322,6.7418,6.7478,6.7548,6.762,6.7668,6.7753,6.7858,6.7873,6.7981,6.8057,6.8184,6.8233,6.8317,6.8298,6.8329,6.8337,6.8344,6.8348,6.8154,6.8334,6.8334,6.8333,6.8333,6.8333,0,6.7336,6.7387,6.7476,6.758,6.7656,6.7651,6.7733,6.7796,6.7891,6.7963,6.8042,6.8158,6.8252,6.8312,6.8407,6.8462,6.8465,6.8486,6.8482,6.8492,6.836,6.8332,6.8483,6.8483,6.8483,6.8483,6.8483,6.8482,6.7431,6.7552,6.7581,6.7731,6.7782,6.7889,6.7936,6.8,6.8057,6.8186,6.8265,6.8304,6.8371,6.8471,6.8556,6.8571,6.8605,6.8628,6.8642,6.8517,6.8502,6.8487,6.846,6.8635,6.8636,6.8767,6.8768,6.8769]}]]